User: anonymous   Login
Location: Lugrin
(46.4033°N, 6.6674°E)
Time: 20:42:43
(UTC+00:00)
Language:

Okean 2 - Orbit

View from above orbital plane
View from above orbital plane
View from above satellite
View from above satellite

Ground track
Ground track

The orbit data is extracted from the following two-line orbital elements,

1 20510U 90018A   20333.15981233  .00000649  00000-0  50520-4 0  9994
2 20510  82.5178  40.9707 0013258  49.7578  10.2328 14.99561002670238
Epoch (UTC): 28 November 2020 03:50:07
Eccentricity: 0.0013258
inclination: 82.5178°
perigee height: 559 km
apogee height: 577 km
right ascension of ascending node: 40.9707°
argument of perigee: 49.7578°
revolutions per day: 14.99561002
mean anomaly at epoch: 10.2328°
orbit number at epoch: 67023

The dashed part of the orbit path shows where the satellite is in the earth's shadow,  

DLR